Regional Weather Roundup
Issued by NWS

Home | Current Version | Previous Version | Graphics & Text | Print | Product List | Glossary On
Versions: 1 2 3 4 5 6 7 8 9 10 11 12 13 14 15 16 17 18 19 20 21 22 23 24 25 26 27 28 29 30 31 32 33 34 35 36 37 38 39 40 41 42 43 44 45 46 47 48 49 50
000
ASUS43 KDMX 100801
RWRIA

WEATHER ROUNDUP FOR IOWA
NATIONAL WEATHER SERVICE DES MOINES IA
200 AM CST SAT DEC 10 2016

NOTE: "FAIR" INDICATES FEW OR NO CLOUDS BELOW 12,000 FEET WITH NO
SIGNIFICANT WEATHER AND/OR OBSTRUCTIONS TO VISIBILITY.

* - THESE STATIONS ARE NOT NWS STATIONS...THUS NOT UNDER NWS
QUALITY CONTROL.  THEY ALSO DO NOT REPORT WEATHER SUCH
AS PRECIPITATION OR FOG.

IAZ001>003-012>014-020>022-031>034-043>046-100900-
   NORTHWEST IOWA

CITY           SKY/WX    TMP DP  RH WIND       PRES   REMARKS
CARROLL *      CLOUDY    19  14  79 E3        30.48S
CHEROKEE *     FLURRIES  17  13  84 CALM      30.47F
DENISON *      CLOUDY    19  14  79 CALM      30.44F
LE MARS *      CLOUDY    18  12  79 CALM      30.48S
ORANGE CITY *  FLURRIES  16  14  93 CALM      30.45S
SHELDON *      FLURRIES  14  12  92 NE8       30.45S WCI   3
SIOUX CITY     FLURRIES  20  11  68 CALM      30.49S
SPENCER        LGT SNOW  14  10  84 N5        30.47S FOG     WCI   6
STORM LAKE *   CLOUDY    16  12  86 N5        30.45F WCI   9
$$

IAZ055>058-069>071-079>083-090>094-100900-
   SOUTHWEST IOWA

CITY           SKY/WX    TMP DP  RH WIND       PRES   REMARKS
ATLANTIC *     CLOUDY    21  14  73 S3        30.47S
AUDUBON *      CLOUDY    21  16  79 CALM      30.46F
CLARINDA *     CLOUDY    25  14  63 CALM      30.51S
COUNCIL BLFS * CLOUDY    21  14  73 SE6       30.46S WCI  14
CRESTON *      CLOUDY    21  14  73 SE5       30.48S WCI  15
HARLAN  *      CLOUDY    21  14  73 S3        30.50S
LAMONI         CLOUDY    22  12  65 SE3       30.49F
RED OAK *      CLOUDY    23  14  68 SE5       30.48F WCI  17
SHENANDOAH *   CLOUDY    25  16  68 SE3       30.49F
$$

IAZ047>049-059>061-072>074-084-100900-
   CENTRAL IOWA

CITY           SKY/WX    TMP DP  RH WIND       PRES   REMARKS
AMES           CLOUDY    20  16  84 CALM      30.51S
ANKENY *       CLOUDY    21  10  63 CALM      30.53R
BOONE *        CLOUDY    19  10  68 CALM      30.49R
CHARITON *     CLOUDY    21  16  79 CALM      30.50F
DES MOINES     CLOUDY    23  12  62 CALM      30.51F
GRINNELL*      CLOUDY    20  14  75 CALM      30.51F
KNOXVILLE *    CLOUDY    21  12  68 CALM      30.50F
MARSHALLTOWN   CLOUDY    18  13  80 SW6       30.50S WCI  10
NEWTON *       CLOUDY    19  14  79 CALM      30.50F
PELLA *        CLOUDY    22  13  67 W3        30.53F
PERRY *        CLOUDY    21  16  81 CALM      30.50S
$$

IAZ004>006-015-016-023>025-035-036-100900-
   NORTH CENTRAL IOWA

CITY           SKY/WX    TMP DP  RH WIND       PRES   REMARKS
ALGONA *       FLURRIES  14  12  92 N8        30.48R WCI   3
CLARION *      CLOUDY    16  14  93 CALM      30.49R
ESTHERVILLE    CLOUDY     9   6  88 N8        30.49R WCI  -3
FORT DODGE *   CLOUDY    18   9  68 CALM      30.49S
MASON CITY     CLOUDY    12   8  84 N8        30.50R WCI   0
WEBSTER CITY * CLOUDY    18  14  86 NW3       30.47S
IOWA FALLS *     N/A     15  12  87 SW5       30.49F WCI   8
$$

IAZ007>011-017>019-026>030-037>042-050>054-066-100900-
   NORTHEAST IOWA

CITY           SKY/WX    TMP DP  RH WIND       PRES   REMARKS
CEDAR RAPIDS   CLOUDY    19  16  88 W5        30.51R WCI  12
CHARLES CITY * CLOUDY    14  10  85 NW5       30.49S WCI   6
CLINTON *      CLOUDY    19  14  81 W6        30.53S WCI  11
DECORAH *      MOCLDY    14  10  85 VRB5      30.46S WCI   6
DUBUQUE        CLOUDY    15  12  88 W6        30.48R WCI   6
MONTICELLO *   CLOUDY    19  14  79 W5        30.51R WCI  13
OELWEIN *      CLOUDY    18  14  86 W5        30.49S WCI  11
WATERLOO       CLOUDY    18  13  80 W5        30.51R WCI  11
$$

IAZ064-065-067-068-078-100900-
   EAST CENTRAL IOWA

CITY           SKY/WX    TMP DP  RH WIND       PRES   REMARKS
DAVENPORT      CLOUDY    19  14  81 W7        30.53S WCI  10
IOWA CITY      CLOUDY    21  15  78 SW3       30.55S
MUSCATINE *    CLOUDY    21  16  79 SW5       30.56S WCI  15
QUAD CITIES    CLOUDY    21  14  74 SW3       30.54S
$$

IAZ062-063-075>077-085>089-095>099-100900-
   SOUTHEAST IOWA

CITY           SKY/WX    TMP DP  RH WIND       PRES   REMARKS
BURLINGTON     CLOUDY    21  15  78 CALM      30.55R
FAIRFIELD *    CLOUDY    21  14  73 CALM      30.54S
FORT MADISON * CLOUDY    21  14  73 CALM      30.55R
KEOKUK *       CLOUDY    23  16  74 CALM      30.55R
OSKALOOSA *    CLOUDY    21  15  76 CALM      30.53S
CENTERVILLE *  MOCLDY    23  16  74 CALM      30.53S
OTTUMWA        CLOUDY    22  13  68 CALM      30.53R
WASHINGTON *   CLOUDY    21  16  79 SW5       30.55S WCI  15
$$

ABBREVIATIONS USED IN REMARKS
   TC - TEMPERATURES IN CELSIUS
  WCI - WIND CHILL INDEX
   HX - HEAT INDEX
  VSB - VISIBILITY
$$





USA.gov is the U.S. government's official web portal to all federal, state and local government web resources and services.